Weather in Stepnoye

Russia / Chelyabinsk Oblast     53°52′35″N   59°04′54″E
temp.,
°C
wind,
m/s
gust,
m/s
humid.,
%
clouds,
%
prec.,
mm/h
press.,
hPa
HPBL,
m
21 april, wed
wed2123:00+1wnw11490 0.0 103310
02:000nw11600 0.0 103310
05:000nnw11600 0.0 103310
08:00+3w11470 0.0 1034143
11:00+7ssw11350 0.0 1033787
14:00+10s22315 0.0 10321180
17:00+11sse22298 0.0 10311246
20:00+8s334181 0.0 103229
22 april, thu
thu2223:00+5ssw345244 0.0 103346
02:00+3sw336085 0.0 103437
05:00+2ssw3364100 0.0 103552
08:00+4s3860100 0.0 1035302
11:00+5s4858100 0.3 1035511
14:00+8s6844100 0.0 1034946
17:00+9s6837100 0.0 10331211
20:00+6s5853100 0.0 1033500
23 april, fri
fri2323:00+5s4963100 0.0 1034473
02:00+3ssw3985100 0.4 1033537
05:00+3sse3991100 0.5 1033696
08:00+3ssw3994100 0.1 1033498
11:00+8s696233 0.0 10311115
14:00+11s6948100 0.1 10291884
17:00+12s5747100 0.1 10281699
20:00+10sse4961100 0.1 1028341
24 april, sat
sat2423:00+7ssw5977100 0.1 1028873
02:00+6sse4891100 1.5 1027951
05:00+5ese3587100 2.1 1025355
08:00+6ese51075100 0.0 1023753
11:00+10se81044100 0.0 10201400
14:00+11sse91237100 0.0 10182058
17:00+9sse8946100 0.0 10171681
20:00+5se5879100 0.1 1018767
25 april, sun
sun2523:00+4e5108594 0.2 1016519
02:00+3e4780100 0.1 1015671
05:00+2n1299100 1.2 1015211
08:00+3sw2497100 0.1 1016286
11:00+9w7106030 0.1 10151121
14:00+11wsw7136499 0.0 10161371
17:00+11wsw7116424 0.2 10161339
20:00+9sw38847 0.6 1017467